• In Sweden
  • List of Countries
  • For 7 days
  • Water Temperature
  • Satellite Maps
  • Weather Map
  • Weather Widgets
  • user-avatar
    Login

    Hourly Weather Pervomayka

    Today, 28 May, Monday

    Time Temperature Precipitation Wind Pressure Humidity
    00:00 +3°C° 0 mm 0 mps 750 mmHg 60%
    01:00 +3°C° 0 mm 1 mps 749 mmHg 60%
    02:00 +3°C° 0 mm 1 mps 749 mmHg 60%
    03:00 +3°C° 0 mm 1 mps 749 mmHg 60%
    04:00 +4°C° 0 mm 1 mps 748 mmHg 59%
    05:00 +4°C° 0 mm 1 mps 748 mmHg 57%
    06:00 +5°C° 0 mm 1 mps 748 mmHg 56%
    07:00 +6°C° 0 mm 1 mps 748 mmHg 51%
    08:00 +8°C° 0 mm 1 mps 748 mmHg 46%
    09:00 +10°C° 0 mm 1 mps 748 mmHg 41%
    10:00 +12°C° 0 mm 1 mps 747 mmHg 37%
    11:00 +14°C° 0 mm 1 mps 747 mmHg 33%
    12:00 +16°C° 0 mm 1 mps 747 mmHg 29%
    13:00 +16°C° 0 mm 1 mps 747 mmHg 28%
    14:00 +16°C° 0 mm 2 mps 747 mmHg 27%
    15:00 +16°C° 0 mm 2 mps 747 mmHg 27%
    16:00 +16°C° 0 mm 3 mps 747 mmHg 31%
    17:00 +14°C° 0 mm 4 mps 748 mmHg 35%
    18:00 +14°C° 0 mm 4 mps 748 mmHg 40%
    19:00 +12°C° 0 mm 4 mps 748 mmHg 51%
    20:00 +10°C° 0 mm 4 mps 748 mmHg 62%
    21:00 +8°C° 0 mm 4 mps 748 mmHg 73%
    22:00 +7°C° 0 mm 4 mps 748 mmHg 75%
    23:00 +7°C° 0 mm 4 mps 748 mmHg 78%

    Tomorrow, 29 May, Tuesday

    Time Temperature Precipitation Wind Pressure Humidity
    00:00 +6°C° 0 mm 5 mps 748 mmHg 80%
    01:00 +6°C° 0 mm 5 mps 747 mmHg 80%
    02:00 +5°C° 0 mm 5 mps 747 mmHg 79%
    03:00 +5°C° 0 mm 5 mps 746 mmHg 79%
    04:00 +6°C° 0 mm 5 mps 746 mmHg 78%
    05:00 +6°C° 0 mm 5 mps 746 mmHg 76%
    06:00 +7°C° 0 mm 6 mps 746 mmHg 75%
    07:00 +7°C° 0.1 mm 6 mps 745 mmHg 74%
    08:00 +8°C° 0.1 mm 6 mps 745 mmHg 74%
    09:00 +9°C° 0.1 mm 6 mps 745 mmHg 73%
    10:00 +10°C° 0.3 mm 6 mps 745 mmHg 76%
    11:00 +10°C° 0.3 mm 6 mps 745 mmHg 78%
    12:00 +10°C° 0.3 mm 6 mps 744 mmHg 80%
    13:00 +11°C° 0.3 mm 6 mps 744 mmHg 79%
    14:00 +13°C° 0.3 mm 6 mps 744 mmHg 78%
    15:00 +13°C° 0.3 mm 6 mps 744 mmHg 77%
    16:00 +13°C° 0.5 mm 6 mps 744 mmHg 77%
    17:00 +12°C° 0.5 mm 7 mps 744 mmHg 76%
    18:00 +11°C° 0.5 mm 7 mps 744 mmHg 76%
    19:00 +9°C° 0.1 mm 6 mps 745 mmHg 79%
    20:00 +7°C° 0.1 mm 5 mps 746 mmHg 82%
    21:00 +5°C° 0.1 mm 4 mps 747 mmHg 85%
    22:00 +4°C° 0 mm 3 mps 748 mmHg 89%
    23:00 +3°C° 0 mm 3 mps 748 mmHg 92%

    Day after tomorrow, 30 May, Wednesday

    Time Temperature Precipitation Wind Pressure Humidity
    00:00 +3°C° 0 mm 2 mps 749 mmHg 95%
    01:00 +3°C° 0 mm 2 mps 749 mmHg 95%
    02:00 +3°C° 0 mm 2 mps 749 mmHg 95%
    03:00 +3°C° 0 mm 2 mps 749 mmHg 95%
    04:00 +4°C° 0.1 mm 2 mps 749 mmHg 93%
    05:00 +4°C° 0.1 mm 2 mps 749 mmHg 91%
    06:00 +5°C° 0.1 mm 2 mps 749 mmHg 88%
    07:00 +6°C° 0.1 mm 2 mps 749 mmHg 85%
    08:00 +7°C° 0.1 mm 2 mps 749 mmHg 82%
    09:00 +8°C° 0.1 mm 2 mps 748 mmHg 79%
    10:00 +10°C° 0.1 mm 2 mps 748 mmHg 72%
    11:00 +12°C° 0.1 mm 2 mps 748 mmHg 64%
    12:00 +14°C° 0.1 mm 2 mps 747 mmHg 56%
    13:00 +15°C° 0 mm 2 mps 747 mmHg 54%
    14:00 +15°C° 0 mm 1 mps 746 mmHg 53%
    15:00 +16°C° 0 mm 1 mps 746 mmHg 51%
    16:00 +15°C° 0.3 mm 2 mps 746 mmHg 57%
    17:00 +15°C° 0.3 mm 2 mps 745 mmHg 64%
    18:00 +13°C° 0.3 mm 3 mps 745 mmHg 70%
    19:00 +12°C° 0.7 mm 3 mps 745 mmHg 76%
    20:00 +10°C° 0.7 mm 4 mps 745 mmHg 82%
    21:00 +8°C° 0.7 mm 4 mps 745 mmHg 88%
    22:00 +8°C° 0.4 mm 4 mps 744 mmHg 89%
    23:00 +7°C° 0.4 mm 4 mps 744 mmHg 91%

    31 May, Thursday

    Time Temperature Precipitation Wind Pressure Humidity
    00:00 +7°C° 0.4 mm 4 mps 744 mmHg 92%
    01:00 +7°C° 0.3 mm 4 mps 744 mmHg 92%
    02:00 +7°C° 0.3 mm 3 mps 743 mmHg 92%
    03:00 +7°C° 0.3 mm 3 mps 743 mmHg 92%
    04:00 +6°C° 1.4 mm 4 mps 743 mmHg 92%
    05:00 +6°C° 1.4 mm 4 mps 743 mmHg 91%
    06:00 +5°C° 1.4 mm 5 mps 744 mmHg 91%
    07:00 +5°C° 1.8 mm 5 mps 744 mmHg 89%
    08:00 +6°C° 1.8 mm 5 mps 745 mmHg 87%
    09:00 +6°C° 1.8 mm 4 mps 745 mmHg 85%
    10:00 +8°C° 0.3 mm 4 mps 746 mmHg 74%
    11:00 +10°C° 0.3 mm 4 mps 747 mmHg 64%
    12:00 +12°C° 0.3 mm 4 mps 747 mmHg 53%
    13:00 +13°C° 0 mm 3 mps 748 mmHg 46%
    14:00 +16°C° 0 mm 3 mps 748 mmHg 39%
    15:00 +17°C° 0 mm 3 mps 749 mmHg 31%
    16:00 +17°C° 0 mm 3 mps 749 mmHg 31%
    17:00 +17°C° 0 mm 4 mps 749 mmHg 31%
    18:00 +17°C° 0 mm 4 mps 749 mmHg 31%
    19:00 +14°C° 0 mm 4 mps 749 mmHg 39%
    20:00 +13°C° 0 mm 5 mps 749 mmHg 46%
    21:00 +10°C° 0 mm 5 mps 749 mmHg 54%
    22:00 +10°C° 0.1 mm 5 mps 748 mmHg 59%
    23:00 +10°C° 0.1 mm 6 mps 747 mmHg 64%

    1 June, Friday

    Time Temperature Precipitation Wind Pressure Humidity
    00:00 +10°C° 0.1 mm 6 mps 746 mmHg 69%
    01:00 +10°C° 1.3 mm 6 mps 746 mmHg 76%
    02:00 +10°C° 1.3 mm 7 mps 745 mmHg 83%
    03:00 +9°C° 1.3 mm 7 mps 744 mmHg 89%
    04:00 +10°C° 0.5 mm 6 mps 744 mmHg 90%
    05:00 +11°C° 0.5 mm 6 mps 743 mmHg 90%
    06:00 +12°C° 0.5 mm 5 mps 743 mmHg 91%
    07:00 +13°C° 0.3 mm 6 mps 743 mmHg 88%
    08:00 +14°C° 0.3 mm 6 mps 743 mmHg 85%
    09:00 +15°C° 0.3 mm 6 mps 743 mmHg 82%
    10:00 +14°C° 1.5 mm 6 mps 742 mmHg 85%
    11:00 +14°C° 1.5 mm 6 mps 741 mmHg 88%
    12:00 +13°C° 1.5 mm 6 mps 741 mmHg 91%
    13:00 +12°C° 2.9 mm 5 mps 741 mmHg 91%
    14:00 +12°C° 2.9 mm 5 mps 741 mmHg 90%
    15:00 +10°C° 2.9 mm 5 mps 740 mmHg 90%
    16:00 +12°C° 0.1 mm 5 mps 741 mmHg 83%
    17:00 +11°C° 0.1 mm 6 mps 742 mmHg 76%
    18:00 +12°C° 0.1 mm 7 mps 743 mmHg 68%
    19:00 +11°C° 0 mm 6 mps 744 mmHg 68%
    20:00 +9°C° 0 mm 5 mps 744 mmHg 69%
    21:00 +8°C° 0 mm 4 mps 745 mmHg 69%
    22:00 +8°C° 0 mm 5 mps 745 mmHg 69%
    23:00 +7°C° 0 mm 5 mps 746 mmHg 70%

    2 June, Saturday

    Time Temperature Precipitation Wind Pressure Humidity
    00:00 +7°C° 0 mm 5 mps 746 mmHg 70%
    01:00 +7°C° 0 mm 5 mps 746 mmHg 71%
    02:00 +7°C° 0 mm 5 mps 747 mmHg 72%
    03:00 +7°C° 0 mm 6 mps 747 mmHg 73%
    04:00 +7°C° 0 mm 6 mps 748 mmHg 72%
    05:00 +7°C° 0 mm 6 mps 749 mmHg 72%
    06:00 +7°C° 0 mm 6 mps 749 mmHg 72%
    07:00 +7°C° 0.1 mm 6 mps 750 mmHg 72%
    08:00 +7°C° 0.1 mm 5 mps 751 mmHg 72%
    09:00 +7°C° 0.1 mm 5 mps 752 mmHg 72%
    10:00 +8°C° 0.1 mm 5 mps 752 mmHg 65%
    11:00 +9°C° 0.1 mm 5 mps 753 mmHg 57%
    12:00 +12°C° 0.1 mm 5 mps 753 mmHg 50%
    13:00 +12°C° 0 mm 4 mps 753 mmHg 46%
    14:00 +13°C° 0 mm 4 mps 753 mmHg 41%
    15:00 +14°C° 0 mm 4 mps 753 mmHg 37%
    16:00 +14°C° 0 mm 3 mps 753 mmHg 37%
    17:00 +14°C° 0 mm 3 mps 753 mmHg 37%
    18:00 +15°C° 0 mm 2 mps 753 mmHg 37%
    19:00 +13°C° 0 mm 2 mps 753 mmHg 43%
    20:00 +12°C° 0 mm 1 mps 753 mmHg 50%
    21:00 +10°C° 0 mm 1 mps 753 mmHg 56%
    22:00 +10°C° 0 mm 1 mps 752 mmHg 58%
    23:00 +9°C° 0 mm 1 mps 752 mmHg 60%
    Show more